When you browse on this site, cookies collect data to enhance your experience and personalize the content and advertising you see.
Visit our Privacy Policy to learn more. By continuing to use the site, you agree to this use of cookies and data.
  • en Belgique
  • Liste des pays
  • À 7 jours
  • Température de l'eau
  • Carte satellitaire
  • Carte météo
  • Widgets météo
  • user-avatar
    Se connecter

    Météo par heure à Esperantinópolis

    Ce jour, 18 Décembre, Mardi

    Heure Température Précipitation Vent Pression Humidité
    00:00 +23°C° 0.7 mm 0 m/s 753 mmHg 96%
    01:00 +23°C° 0 mm 0 m/s 753 mmHg 96%
    02:00 +23°C° 0 mm 0 m/s 753 mmHg 96%
    03:00 +22°C° 0 mm 0 m/s 753 mmHg 96%
    04:00 +22°C° 0 mm 0 m/s 753 mmHg 96%
    05:00 +22°C° 0 mm 0 m/s 753 mmHg 96%
    06:00 +22°C° 0 mm 0 m/s 753 mmHg 96%
    07:00 +24°C° 0.1 mm 0 m/s 753 mmHg 92%
    08:00 +25°C° 0.1 mm 0 m/s 753 mmHg 87%
    09:00 +29°C° 0 mm 1 m/s 754 mmHg 82%
    10:00 +30°C° 0.1 mm 1 m/s 754 mmHg 76%
    11:00 +31°C° 0.1 mm 1 m/s 753 mmHg 69%
    12:00 +34°C° 0.1 mm 2 m/s 753 mmHg 63%
    13:00 +34°C° 0.1 mm 2 m/s 752 mmHg 62%
    14:00 +33°C° 0.1 mm 1 m/s 752 mmHg 60%
    15:00 +34°C° 0.1 mm 1 m/s 751 mmHg 59%
    16:00 +32°C° 0.2 mm 1 m/s 751 mmHg 65%
    17:00 +31°C° 0.2 mm 1 m/s 751 mmHg 72%
    18:00 +28°C° 0.2 mm 0 m/s 751 mmHg 78%
    19:00 +27°C° 0.2 mm 0 m/s 751 mmHg 81%
    20:00 +26°C° 0.2 mm 0 m/s 752 mmHg 84%
    21:00 +25°C° 0.2 mm 0 m/s 752 mmHg 87%
    22:00 +27°C° 0.2 mm 1 m/s 752 mmHg 89%
    23:00 +27°C° 0.2 mm 1 m/s 752 mmHg 91%

    Demain, 19 Décembre, Mercredi

    Heure Température Précipitation Vent Pression Humidité
    00:00 +26°C° 0.2 mm 1 m/s 752 mmHg 93%
    01:00 +26°C° 0.7 mm 1 m/s 752 mmHg 94%
    02:00 +26°C° 0.7 mm 1 m/s 752 mmHg 95%
    03:00 +25°C° 0.7 mm 1 m/s 752 mmHg 97%
    04:00 +25°C° 0.5 mm 1 m/s 752 mmHg 97%
    05:00 +25°C° 0.5 mm 1 m/s 752 mmHg 97%
    06:00 +23°C° 0.5 mm 0 m/s 752 mmHg 97%
    07:00 +27°C° 0.2 mm 1 m/s 752 mmHg 92%
    08:00 +28°C° 0.2 mm 1 m/s 753 mmHg 87%
    09:00 +30°C° 0.2 mm 1 m/s 753 mmHg 82%
    10:00 +30°C° 1 mm 1 m/s 753 mmHg 80%
    11:00 +31°C° 1 mm 1 m/s 752 mmHg 78%
    12:00 +31°C° 1 mm 1 m/s 752 mmHg 76%
    13:00 +32°C° 1.3 mm 1 m/s 751 mmHg 74%
    14:00 +32°C° 1.3 mm 1 m/s 751 mmHg 72%
    15:00 +33°C° 1.3 mm 1 m/s 750 mmHg 69%
    16:00 +31°C° 0.9 mm 1 m/s 750 mmHg 76%
    17:00 +30°C° 0.9 mm 1 m/s 750 mmHg 82%
    18:00 +27°C° 0.9 mm 0 m/s 750 mmHg 88%
    19:00 +26°C° 0.2 mm 0 m/s 751 mmHg 89%
    20:00 +25°C° 0.2 mm 0 m/s 751 mmHg 90%
    21:00 +27°C° 0.2 mm 1 m/s 751 mmHg 92%
    22:00 +27°C° 0.2 mm 1 m/s 751 mmHg 93%
    23:00 +26°C° 0.2 mm 1 m/s 751 mmHg 94%

    Après-demain, 20 Décembre, Jeudi

    Heure Température Précipitation Vent Pression Humidité
    00:00 +26°C° 0.2 mm 1 m/s 751 mmHg 96%
    01:00 +26°C° 0.1 mm 1 m/s 751 mmHg 97%
    02:00 +26°C° 0.1 mm 1 m/s 751 mmHg 97%
    03:00 +25°C° 0.1 mm 1 m/s 750 mmHg 98%
    04:00 +25°C° 0.8 mm 1 m/s 751 mmHg 98%
    05:00 +25°C° 0.8 mm 1 m/s 751 mmHg 98%
    06:00 +25°C° 0.8 mm 1 m/s 751 mmHg 98%
    07:00 +26°C° 0.2 mm 1 m/s 752 mmHg 94%
    08:00 +28°C° 0.2 mm 2 m/s 752 mmHg 90%
    09:00 +29°C° 0.2 mm 2 m/s 753 mmHg 86%
    10:00 +30°C° 0.5 mm 2 m/s 752 mmHg 79%
    11:00 +31°C° 0.5 mm 2 m/s 752 mmHg 73%
    12:00 +33°C° 0.5 mm 1 m/s 752 mmHg 66%
    13:00 +33°C° 0.5 mm 1 m/s 751 mmHg 65%
    14:00 +33°C° 0.5 mm 1 m/s 750 mmHg 64%
    15:00 +33°C° 0.5 mm 1 m/s 749 mmHg 63%
    16:00 +32°C° 0.3 mm 1 m/s 749 mmHg 71%
    17:00 +30°C° 0.3 mm 1 m/s 750 mmHg 79%
    18:00 +28°C° 0.3 mm 1 m/s 750 mmHg 86%
    19:00 +28°C° 0.2 mm 1 m/s 750 mmHg 89%
    20:00 +27°C° 0.2 mm 1 m/s 751 mmHg 92%
    21:00 +26°C° 0.2 mm 1 m/s 752 mmHg 94%
    22:00 +26°C° 0.1 mm 1 m/s 752 mmHg 95%
    23:00 +26°C° 0.1 mm 1 m/s 752 mmHg 96%

    21 Décembre, Vendredi

    Heure Température Précipitation Vent Pression Humidité
    00:00 +25°C° 0.1 mm 1 m/s 752 mmHg 97%
    01:00 +25°C° 0 mm 1 m/s 751 mmHg 97%
    02:00 +25°C° 0 mm 1 m/s 751 mmHg 98%
    03:00 +23°C° 0 mm 0 m/s 750 mmHg 98%
    04:00 +23°C° 0 mm 0 m/s 751 mmHg 98%
    05:00 +23°C° 0 mm 0 m/s 751 mmHg 98%
    06:00 +23°C° 0 mm 0 m/s 751 mmHg 98%
    07:00 +24°C° 0 mm 0 m/s 752 mmHg 94%
    08:00 +27°C° 0 mm 1 m/s 752 mmHg 89%
    09:00 +28°C° 0 mm 1 m/s 752 mmHg 84%
    10:00 +29°C° 0 mm 1 m/s 752 mmHg 77%
    11:00 +31°C° 0 mm 2 m/s 752 mmHg 70%
    12:00 +32°C° 0 mm 2 m/s 751 mmHg 62%
    13:00 +32°C° 0 mm 2 m/s 750 mmHg 62%
    14:00 +32°C° 0 mm 2 m/s 750 mmHg 61%
    15:00 +34°C° 0 mm 2 m/s 749 mmHg 61%
    16:00 +31°C° 0.1 mm 1 m/s 749 mmHg 68%
    17:00 +30°C° 0.1 mm 1 m/s 749 mmHg 75%
    18:00 +29°C° 0.1 mm 1 m/s 750 mmHg 82%
    19:00 +28°C° 1.1 mm 1 m/s 750 mmHg 85%
    20:00 +27°C° 1.1 mm 1 m/s 751 mmHg 89%
    21:00 +26°C° 1.1 mm 1 m/s 751 mmHg 93%
    22:00 +26°C° 0.2 mm 1 m/s 751 mmHg 94%
    23:00 +26°C° 0.2 mm 1 m/s 751 mmHg 95%

    22 Décembre, Samedi

    Heure Température Précipitation Vent Pression Humidité
    00:00 +26°C° 0.2 mm 1 m/s 751 mmHg 96%
    01:00 +25°C° 0.2 mm 1 m/s 751 mmHg 97%
    02:00 +25°C° 0.2 mm 1 m/s 750 mmHg 97%
    03:00 +23°C° 0.2 mm 0 m/s 750 mmHg 98%
    04:00 +23°C° 0.6 mm 0 m/s 750 mmHg 98%
    05:00 +23°C° 0.6 mm 0 m/s 751 mmHg 97%
    06:00 +25°C° 0.6 mm 1 m/s 751 mmHg 97%
    07:00 +26°C° 0.6 mm 1 m/s 751 mmHg 93%
    08:00 +28°C° 0.6 mm 1 m/s 752 mmHg 89%
    09:00 +29°C° 0.6 mm 2 m/s 752 mmHg 85%
    10:00 +30°C° 0.9 mm 2 m/s 752 mmHg 81%
    11:00 +31°C° 0.9 mm 2 m/s 751 mmHg 76%
    12:00 +32°C° 0.9 mm 1 m/s 751 mmHg 72%
    13:00 +32°C° 1.3 mm 1 m/s 750 mmHg 74%
    14:00 +32°C° 1.3 mm 1 m/s 750 mmHg 76%
    15:00 +32°C° 1.3 mm 1 m/s 749 mmHg 78%
    16:00 +30°C° 1.7 mm 1 m/s 749 mmHg 83%
    17:00 +29°C° 1.7 mm 1 m/s 749 mmHg 87%
    18:00 +28°C° 1.7 mm 1 m/s 750 mmHg 92%
    19:00 +27°C° 0.3 mm 1 m/s 750 mmHg 93%
    20:00 +26°C° 0.3 mm 1 m/s 751 mmHg 94%
    21:00 +26°C° 0.3 mm 1 m/s 751 mmHg 95%
    22:00 +26°C° 0.4 mm 1 m/s 751 mmHg 96%
    23:00 +25°C° 0.4 mm 1 m/s 751 mmHg 97%

    23 Décembre, Dimanche

    Heure Température Précipitation Vent Pression Humidité
    00:00 +25°C° 0.4 mm 1 m/s 751 mmHg 97%
    01:00 +25°C° 0.7 mm 1 m/s 751 mmHg 97%
    02:00 +25°C° 0.7 mm 1 m/s 751 mmHg 96%
    03:00 +25°C° 0.7 mm 1 m/s 750 mmHg 96%
    04:00 +25°C° 0.1 mm 1 m/s 751 mmHg 96%
    05:00 +25°C° 0.1 mm 1 m/s 751 mmHg 96%
    06:00 +24°C° 0.1 mm 1 m/s 751 mmHg 96%
    07:00 +26°C° 0.1 mm 1 m/s 752 mmHg 90%
    08:00 +28°C° 0.1 mm 1 m/s 752 mmHg 84%
    09:00 +29°C° 0.1 mm 2 m/s 752 mmHg 79%
    10:00 +30°C° 0.6 mm 2 m/s 752 mmHg 75%
    11:00 +31°C° 0.6 mm 2 m/s 752 mmHg 71%
    12:00 +32°C° 0.6 mm 2 m/s 752 mmHg 68%
    13:00 +31°C° 1.2 mm 2 m/s 751 mmHg 72%
    14:00 +31°C° 1.2 mm 2 m/s 750 mmHg 76%
    15:00 +30°C° 1.2 mm 1 m/s 750 mmHg 80%
    16:00 +29°C° 1.4 mm 1 m/s 750 mmHg 84%
    17:00 +28°C° 1.4 mm 1 m/s 750 mmHg 89%
    18:00 +27°C° 1.4 mm 1 m/s 751 mmHg 93%
    19:00 +26°C° 0.1 mm 1 m/s 751 mmHg 95%
    20:00 +26°C° 0.1 mm 1 m/s 751 mmHg 96%
    21:00 +25°C° 0.1 mm 1 m/s 752 mmHg 97%
    22:00 +25°C° 0.4 mm 1 m/s 752 mmHg 97%
    23:00 +25°C° 0.4 mm 1 m/s 752 mmHg 98%
    Voir plus